Location: *
(41.0833°N, 73.4167°W)
Time: 19:19:23
(UTC+00:00)

ATLAS 3B R/B - Pass Details

Date: 22 October 2019
Orbit: 1029 x 1166 km, 63.8° (Epoch: 10 November)

Event Time Altitude Azimuth Distance (km) Brightness Sun altitude
Rises 01:35:41 0° 247° (WSW) 3,820 6.1 -39.9°
Reaches altitude 10° 01:38:40 10° 257° (WSW) 2,853 5.4 -40.4°
Enters shadow 01:44:23 31° 316° (NW) 1,730 4.1 -41.4°
